Regional Weather Roundup
Issued by NWS

Home | Current Version | Previous Version | Text Only | Print | Product List | Glossary On
Versions: 1 2 3 4 5 6 7 8 9 10 11 12 13 14 15 16 17 18 19 20 21 22 23 24 25 26 27 28 29 30 31 32 33 34 35 36 37 38 39 40 41 42 43 44 45 46 47 48 49 50
000
ASUS43 KMPX 201801
RWRMN
WEATHER ROUNDUP FOR MINNESOTA
NATIONAL WEATHER SERVICE TWIN CITIES/CHANHASSEN MN
100 PM CDT WED SEP 20 2017


NOTE: "FAIR" INDICATES FEW OR NO CLOUDS BELOW 12,000 FEET WITH NO
SIGNIFICANT WEATHER AND/OR OBSTRUCTIONS TO VISIBILITY. N/A MEANS
CURRENT SKY AND/OR WEATHER CONDITIONS ARE NOT AVAILABLE.

MNZ060>063-068>070-201900-
   Twin Cities Metro

CITY           SKY/WX    TMP DP  RH WIND       PRES   REMARKS
TWIN CITIES    MOSUNNY   74  58  57 NW9       29.79R
6HR MIN TEMP:  68; 6HR MAX TEMP:  74;

ST PAUL        SUNNY     73  57  57 W12       29.79R
CRYSTAL        SUNNY     72  53  51 W15       29.78R
BLAINE         MOSUNNY   73  57  56 W14       29.79R
LAKEVILLE      SUNNY     72  55  56 NW9       29.80R
EDEN PRAIRIE   SUNNY     72  55  55 NW10      29.79R
6HR MIN TEMP:  65; 6HR MAX TEMP:  72;

SOUTH ST PAUL  SUNNY     73  55  54 NW6       29.79R
LAKE ELMO      FAIR      72  59  64 W9        29.80R
$$
MNZ001>005-007-008-013>017-022>024-027-028-201900-
   Northwest Minnesota

CITY           SKY/WX    TMP DP  RH WIND       PRES   REMARKS
BEMIDJI        SUNNY     63  45  52 W13G21    29.75S
HALLOCK        CLOUDY    66  43  42 SW15      29.66R
ROSEAU         SUNNY     64  48  55 W15G21    29.68R
WARROAD        SUNNY     63  50  63 SW17      29.68R
CROOKSTON      SUNNY     64  46  52 W14       29.72S
FOSSTON        SUNNY     63  46  55 W13       29.75S
DETROIT LAKES  SUNNY     63  45  51 W10       29.79R
MOORHEAD       SUNNY     66  39  37 SW10      29.77R
PARK RAPIDS    SUNNY     65  46  50 W15       29.77R
MAHNOMEN       FAIR      63  48  57 W12G17    29.76R
$$
MNZ006-009>011-018-025>026-201900-
   North Central Minnesota

CITY           SKY/WX    TMP DP  RH WIND       PRES   REMARKS
BAUDETTE       SUNNY     63  45  51 W14G23    29.69R
FLAG ISLAND    SUNNY     63  43  48 SW15      29.64R
INTL FALLS     MOSUNNY   62  53  72 W10       29.69R
6HR MIN TEMP:  60; 6HR MAX TEMP:  65; 6HR PCP:  0.01;

WASKISH        PTSUNNY   63  52  67 SW14G20   29.73R
BIG FORK       SUNNY     66  52  59 SW16G22   29.72R
LONGVILLE      SUNNY     64  50  59 NW9       29.76R
GRAND RAPIDS   SUNNY     66  52  60 W10G18    29.76R
CRANE LAKE     PTSUNNY   63  57  82 W6        29.71R
ORR            CLOUDY    63  54  72 W8        29.69R
COOK           PTSUNNY   64  59  82 W6        29.72R
WALKER         FAIR      63  47  57 W10G16    29.76R
$$
MNZ012-019>021-037-201900-
   Northeast Minnesota

CITY           SKY/WX    TMP DP  RH WIND       PRES   REMARKS
DULUTH         CLOUDY    68  61  78 W13       29.74R
6HR MIN TEMP:  60; 6HR MAX TEMP:  68; 6HR PCP:  0.04;

ELY            PTSUNNY   64  61  88 SW6       29.71R
HIBBING        PTSUNNY   64  57  78 W7        29.73R
EVELETH        PTSUNNY   64  60  87 W10       29.74R
DULUTH HARBOR  CLOUDY    70  64  83 W12       29.72R
GRAND MARAIS     N/A     62  60  93 NE7       29.70S
$$
MNZ029>031-032-039>041-046>048-054>057-064-201900-
   West Central Minnesota

CITY           SKY/WX    TMP DP  RH WIND       PRES   REMARKS
FERGUS FALLS   SUNNY     64  45  48 NW14      29.80R
WHEATON        SUNNY     68  36  30 W12G18    29.82R
MORRIS         SUNNY     66  45  45 W10       29.80S
ALEXANDRIA     SUNNY     66  44  45 NW14      29.83R
ELBOW LAKE     FAIR      65  45  49 SW12      29.81R
WADENA         SUNNY     64  46  52 W9G17     29.79R
GLENWOOD       SUNNY     64  46  52 W15       29.82R
APPLETON       SUNNY     68  43  40 W10       29.81S
BENSON         SUNNY     68  46  45 NW7       29.84R
ORTONVILLE     SUNNY     70  41  35 W7        29.81S
MADISON        SUNNY     70  46  43 NW9G16    29.83R
WILLMAR        FAIR      66  46  48 NW13G21   29.83S
$$
MNZ033>034-036-042>043-049>051-058-059-201900-
   Central Minnesota

CITY           SKY/WX    TMP DP  RH WIND       PRES   REMARKS
ST CLOUD       SUNNY     69  51  52 NW15      29.80R
6HR MIN TEMP:  59; 6HR MAX TEMP:  69;

SAUK CENTRE    FAIR      64  46  52 W12       29.81R
PAYNESVILLE    SUNNY     67  49  51 NW12G18   29.82R
AITKIN         SUNNY     68  52  56 SW9       29.76R
PINE RIVER     SUNNY     63  46  55 W10       29.81R
BRAINERD       SUNNY     65  47  52 NW13G22   29.78R
STAPLES          N/A     66  45  45 W12       29.79R
LONG PRAIRIE   FAIR      63  46  55 SW9G16    29.81R
LITTLE FALLS   SUNNY     64  37  36 NW10G17   29.80R
LITCHFIELD     SUNNY     70  48  46 NW13      29.82R
BUFFALO        SUNNY     70  52  53 W6G16     29.81R
MAPLE LAKE     SUNNY     69  53  57 NW10G18   29.82R
HUTCHINSON     SUNNY     69  53  55 W8G16     29.83R
$$
MNZ037-044-045-052-053-201900-
   East Central Minnesota

CITY           SKY/WX    TMP DP  RH WIND       PRES   REMARKS
PRINCETON      SUNNY     72  54  53 W10       29.80R
MORA           MOSUNNY   70  54  56 NW9       29.79R
RUSH CITY      MOSUNNY   72  57  59 NW6       29.78R
MOOSE LAKE     PTSUNNY   70  54  56 W7G17     29.74R
HINCKLEY       FAIR      70  55  60 W12       29.77R
CLOQUET        MOSUNNY   66  55  68 W12G18    29.74R
MCGREGOR       SUNNY     68  54  60 W10G21    29.76R
$$
MNZ071>073-080-081-089-090-097-098-201900-
   Southwest Minnesota

CITY           SKY/WX    TMP DP  RH WIND       PRES   REMARKS
MONTEVIDEO     SUNNY     72  52  49 W6        29.83S
GRANITE FALLS  SUNNY     68  51  55 NW8       29.85S
CANBY          SUNNY     68  47  46 W10       29.85R
MARSHALL       SUNNY     67  47  48 W9        29.85R
REDWOOD FALLS  SUNNY     68  46  45 N8        29.83R
OLIVIA         SUNNY     70  50  49 W12G17    29.82R
PIPESTONE      SUNNY     66  48  52 N3        29.87R
WINDOM         SUNNY     68  50  52 NW10G16   29.86R
WORTHINGTON    SUNNY     67  50  54 W9        29.87R
JACKSON        SUNNY     68  52  56 NW8G17    29.86R
TRACY          SUNNY     68  51  53 NW7       29.86R
SLAYTON        SUNNY     66  47  50 W10G16    29.87R
$$
MNZ065>067-074>077-082>085-091>093-201900-
   South Central Minnesota

CITY           SKY/WX    TMP DP  RH WIND       PRES   REMARKS
MANKATO        SUNNY     70  55  59 W14       29.82R
NEW ULM        SUNNY     70  52  52 W12       29.83R
ST JAMES       SUNNY     70  52  52 NW10G18   29.85R
FAIRMONT       SUNNY     72  53  51 NW14      29.84R
GLENCOE        SUNNY     70  57  64 NW10G16   29.81R
FARIBAULT      SUNNY     72  57  60 NW9       29.82R
OWATONNA       SUNNY     72  57  60 W12G17    29.82R
WASECA         SUNNY     72  55  56 NW8       29.83R
ALBERT LEA     SUNNY     75  57  53 NW9       29.81R
$$
MNZ078>079-086>088-094>096-201900-
   Southeast Minnesota

CITY           SKY/WX    TMP DP  RH WIND       PRES   REMARKS
ROCHESTER      CLOUDY    78  66  66 NW12      29.80R
6HR MIN TEMP:  68; 6HR MAX TEMP:  79;

RED WING       CLOUDY    73  57  56 NW7       29.78R
STANTON        MOSUNNY   73  58  59 NW10G16   29.79R
DODGE CENTER   PTSUNNY   72  57  60 NW10      29.82R
WINONA         CLOUDY    79  68  69 SW6       29.77R
AUSTIN         MOSUNNY   73  59  60 NW14      29.80R
PRESTON        CLOUDY    77  67  71 SW10      29.80R
$$
ABBREVIATIONS USED IN REMARKS
   TC - TEMPERATURES IN CELSIUS
  WCI - WIND CHILL INDEX
   HX - HEAT INDEX
  VSB - VISIBILITY
$$




USA.gov is the U.S. government's official web portal to all federal, state and local government web resources and services.